Home > Weather > Bruges > Past weeks

Flag for Belgium Past Weather in Bruges, Belgium — Yesterday and Last 2 Weeks

Now
55 °F

Fog.


Feels Like: 55 °F
Forecast: 58 / 74 °F
Wind: 2 mph from South

Location: Oostende Airport

Current Time: Jul 24, 2016 at 3:13:47 AM

Latest Report: Jul 24, 2016 at 2:20 AM


Visibility: 1 mi

Pressure: 30.15 "Hg

Humidity: 94%

Dew Point: 54 °F

Location of BrugesLocation

Past Weather in Bruges — Graph

°F

Bruges Temperature Yesterday

Maximum temperature yesterday: 66 °F (at 10:20 AM)
Minimum temperature yesterday: 57 °F (at 11:50 PM)
Average temperature yesterday: 64 °F

High & Low Weather Summary for the Past Weeks

 TemperatureHumidityPressure
High88 °F (Jul 19, 3:20 PM)100% (Jul 18, 5:50 AM)30.33 "Hg (Jul 18, 5:50 AM)
Low50 °F (Jul 15, 12:50 AM)35% (Jul 19, 4:50 PM)29.80 "Hg (Jul 10, 7:20 PM)
Average65 °F78%30.06 "Hg
* Reported Jul 9 1:20 AM — Jul 24 1:50 AM, Bruges, Weather by CustomWeather, © 2016

Note: Actual official high and low records may vary slightly from our data, if they occured in-between our weather recording intervals... More about our weather records

Advertising

Bruges Weather History for the Previous 24 Hours

Scroll right to see more
 ConditionsComfort  
Time TempWeatherWind HumidityBarometerVisibility
1:50 AM
Sun, Jul 24
55 °FFog.3 mph94%30.15 "Hg1 mi
1:20 AM55 °FFog.7 mph94%30.15 "Hg2 mi
12:50 AM55 °FFog.6 mph94%30.15 "Hg2 mi
12:20 AM57 °FFog.5 mph94%30.15 "Hg3 mi
11:50 PM
Sat, Jul 23
57 °FPassing clouds.3 mph88%30.15 "Hg4 mi
11:20 PM59 °FPassing clouds.2 mph94%30.15 "HgN/A
10:50 PM59 °FPassing clouds.2 mph88%30.15 "HgN/A
10:20 PM59 °FPassing clouds.2 mph94%30.15 "HgN/A
9:50 PM61 °FPassing clouds.1 mph88%30.15 "HgN/A
9:20 PM63 °FPassing clouds.3 mph88%30.15 "HgN/A
8:50 PM63 °FPartly sunny.6 mph88%30.15 "HgN/A
8:20 PM63 °FPartly sunny.7 mph88%30.15 "HgN/A
7:50 PM64 °FPartly sunny.6 mph83%30.15 "HgN/A
7:20 PM64 °FPartly sunny.6 mph83%30.15 "HgN/A
6:50 PM64 °FPartly sunny.7 mph83%30.15 "HgN/A
6:20 PM64 °FPartly sunny.8 mph83%30.15 "HgN/A
5:50 PM64 °FPartly sunny.9 mph83%30.15 "HgN/A
5:20 PM64 °FPartly sunny.7 mph83%30.15 "HgN/A
4:50 PM64 °FPartly sunny.9 mph83%30.15 "HgN/A
4:20 PM64 °FPartly sunny.9 mph83%30.15 "HgN/A
3:50 PM66 °FPartly sunny.8 mph78%30.15 "HgN/A
3:20 PM66 °FPartly sunny.9 mph78%30.15 "HgN/A
2:50 PM66 °FPartly sunny.9 mph78%30.15 "HgN/A
2:20 PM66 °FPartly sunny.9 mph83%30.15 "HgN/A
1:50 PM66 °FPartly sunny.7 mph78%30.15 "HgN/A
1:20 PM66 °FPartly sunny.8 mph78%30.15 "HgN/A
12:50 PM66 °FPartly sunny.8 mph78%30.15 "HgN/A
12:20 PM64 °FPartly sunny.6 mph83%30.15 "HgN/A
11:50 AM64 °FPartly sunny.8 mph83%30.15 "HgN/A
11:20 AM64 °FPartly sunny.8 mph83%30.15 "HgN/A
10:50 AM64 °FPartly sunny.9 mph83%30.12 "HgN/A
10:20 AM66 °FPartly sunny.7 mph83%30.12 "HgN/A
9:50 AM64 °FPartly sunny.8 mph83%30.12 "HgN/A
9:20 AM64 °FPartly sunny.9 mph83%30.12 "HgN/A
8:50 AM64 °FBroken clouds.8 mph83%30.12 "HgN/A
8:20 AM64 °FBroken clouds.8 mph83%30.09 "HgN/A
7:50 AM64 °FBroken clouds.9 mph83%30.09 "HgN/A
7:20 AM63 °FPartly sunny.10 mph88%30.09 "HgN/A
6:50 AM63 °FPassing clouds.8 mph88%30.09 "HgN/A
6:20 AM63 °FPassing clouds.8 mph88%30.09 "HgN/A
5:50 AM63 °FPassing clouds.7 mph88%30.09 "HgN/A
5:20 AM63 °FPassing clouds.6 mph88%30.09 "HgN/A
4:50 AM63 °FPassing clouds.6 mph88%30.09 "HgN/A
4:20 AM63 °FPassing clouds.6 mph88%30.09 "HgN/A
3:50 AM63 °FPassing clouds.7 mph88%30.09 "HgN/A
3:20 AM63 °FPassing clouds.6 mph88%30.12 "HgN/A
Weather by CustomWeather, © 2016

See weather overviewHow to use our weather pages